"Sample Date","Sample Time","Sample Value","Units","Flow Rate","Sample Interval","Number Channels","Micron Size 0","Counts/Channel 0","Micron Size 1","Counts/Channel 1","Micron Size 2","Counts/Channel 2","Micron Size 3","Counts/Channel 3","Micron Size 4","Counts/Channel 4","Micron Size 5","Counts/Channel 5","Micron Size 6","Counts/Channel 6","Micron Size 7","Counts/Channel 7","Micron Size 8","Counts/Channel 8","Micron Size 9","Counts/Channel 9","Micron Size 10","Counts/Channel 10","Micron Size 11","Counts/Channel 11","Micron Size 12","Counts/Channel 12","Micron Size 13","Counts/Channel 13","Micron Size 14","Counts/Channel 14","Micron Size 15","Counts/Channel 15","Micron Size 16","Counts/Channel 16","Micron Size 17","Counts/Channel 17","Micron Size 18","Counts/Channel 18","Micron Size 19","Counts/Channel 19","Micron Size 20","Counts/Channel 20","Micron Size 21","Counts/Channel 21","Micron Size 22","Counts/Channel 22","Micron Size 23","Counts/Channel 23","Micron Size 24","Counts/Channel 24","Micron Size 25","Counts/Channel 25","Micron Size 26","Counts/Channel 26","Micron Size 27","Counts/Channel 27","Micron Size 28","Counts/Channel 28","Micron Size 29","Counts/Channel 29","Micron Size 30","Counts/Channel 30","Micron Size 31","Counts/Channel 31"
"04/08/08","03:00:05",11638.000,"cc",28417.156,6.00,6,0.100,7863.000,0.200,1185.000,0.300,950.000,0.500,1187.000,1.000,453.000,5.000,0
"04/08/08","03:00:11",11447.000,"cc",28419.408,6.00,6,0.100,7739.000,0.200,1151.000,0.300,946.000,0.500,1155.000,1.000,456.000,5.000,0
"04/08/08","03:00:17",11271.000,"cc",28345.385,6.00,6,0.100,7543.000,0.200,1135.000,0.300,977.000,0.500,1147.000,1.000,469.000,5.000,0
"04/08/08","03:00:23",11566.000,"cc",28380.057,6.00,6,0.100,7721.000,0.200,1181.000,0.300,988.000,0.500,1219.000,1.000,457.000,5.000,0
"04/08/08","03:00:29",11333.000,"cc",28211.826,6.00,6,0.100,7610.000,0.200,1118.000,0.300,952.000,0.500,1186.000,1.000,467.000,5.000,0
"04/08/08","03:00:35",11500.000,"cc",28237.389,6.00,6,0.100,7825.000,0.200,1122.000,0.300,969.000,0.500,1104.000,1.000,480.000,5.000,0
"04/08/08","03:00:41",11736.000,"cc",28437.242,6.00,6,0.100,7964.000,0.200,1204.000,0.300,940.000,0.500,1164.000,1.000,464.000,5.000,0
"04/08/08","03:00:47",11415.000,"cc",28230.846,6.00,6,0.100,7545.000,0.200,1239.000,0.300,1009.000,0.500,1147.000,1.000,475.000,5.000,0
"04/08/08","03:00:53",11407.000,"cc",28321.041,6.00,6,0.100,7670.000,0.200,1199.000,0.300,899.000,0.500,1177.000,1.000,462.000,5.000,0
"04/08/08","03:00:59",11739.000,"cc",28165.707,6.00,6,0.100,7813.000,0.200,1263.000,0.300,1025.000,0.500,1169.000,1.000,469.000,5.000,0
"04/08/08","03:01:05",11964.000,"cc",28354.537,6.00,6,0.100,7999.000,0.200,1217.000,0.300,1050.000,0.500,1229.000,1.000,469.000,5.000,0
"04/08/08","03:01:11",11643.000,"cc",28459.936,6.00,6,0.100,7871.000,0.200,1162.000,0.300,938.000,0.500,1175.000,1.000,497.000,5.000,0
"04/08/08","03:01:17",11387.000,"cc",28378.453,6.00,6,0.100,7776.000,0.200,1084.000,0.300,947.000,0.500,1138.000,1.000,442.000,5.000,0
"04/08/08","03:01:23",11536.000,"cc",28354.092,6.00,6,0.100,7786.000,0.200,1129.000,0.300,984.000,0.500,1173.000,1.000,464.000,5.000,0
"04/08/08","03:01:29",11489.000,"cc",28312.178,6.00,6,0.100,7852.000,0.200,1161.000,0.300,925.000,0.500,1111.000,1.000,440.000,5.000,0
"04/08/08","03:01:35",11392.000,"cc",28280.299,6.00,6,0.100,7739.000,0.200,1151.000,0.300,885.000,0.500,1138.000,1.000,479.000,5.000,0
"04/08/08","03:01:41",11539.000,"cc",28283.910,6.00,6,0.100,7818.000,0.200,1158.000,0.300,968.000,0.500,1144.000,1.000,451.000,5.000,0
"04/08/08","03:01:47",11384.000,"cc",28343.506,6.00,6,0.100,7797.000,0.200,1112.000,0.300,863.000,0.500,1140.000,1.000,472.000,5.000,0
"04/08/08","03:01:53",11548.000,"cc",28276.178,6.00,6,0.100,7943.000,0.200,1102.000,0.300,934.000,0.500,1132.000,1.000,437.000,5.000,0
"04/08/08","03:01:59",11355.000,"cc",28425.477,6.00,6,0.100,7803.000,0.200,1091.000,0.300,926.000,0.500,1081.000,1.000,454.000,5.000,0
"04/08/08","03:02:05",11236.000,"cc",28325.846,6.00,6,0.100,7686.000,0.200,1114.000,0.300,892.000,0.500,1115.000,1.000,429.000,5.000,0
"04/08/08","03:02:11",11295.000,"cc",28250.674,6.00,6,0.100,7725.000,0.200,1098.000,0.300,897.000,0.500,1133.000,1.000,442.000,5.000,0
"04/08/08","03:02:17",11654.000,"cc",28224.701,6.00,6,0.100,7945.000,0.200,1123.000,0.300,967.000,0.500,1145.000,1.000,474.000,5.000,0
"04/08/08","03:02:23",11345.000,"cc",28169.346,6.00,6,0.100,7655.000,0.200,1144.000,0.300,929.000,0.500,1171.000,1.000,446.000,5.000,0
"04/08/08","03:02:29",11312.000,"cc",28501.895,6.00,6,0.100,7803.000,0.200,1046.000,0.300,925.000,0.500,1114.000,1.000,424.000,5.000,0
"04/08/08","03:02:35",11428.000,"cc",28246.063,6.00,6,0.100,7743.000,0.200,1159.000,0.300,937.000,0.500,1117.000,1.000,472.000,5.000,0
"04/08/08","03:02:41",11356.000,"cc",28372.645,6.00,6,0.100,7785.000,0.200,1087.000,0.300,946.000,0.500,1087.000,1.000,451.000,5.000,0
"04/08/08","03:02:47",11303.000,"cc",28252.022,6.00,6,0.100,7743.000,0.200,1075.000,0.300,915.000,0.500,1118.000,1.000,452.000,5.000,0
"04/08/08","03:02:53",11304.000,"cc",28375.828,6.00,6,0.100,7663.000,0.200,1142.000,0.300,916.000,0.500,1112.000,1.000,471.000,5.000,0
"04/08/08","03:02:59",11296.000,"cc",28258.258,6.00,6,0.100,7642.000,0.200,1146.000,0.300,926.000,0.500,1131.000,1.000,451.000,5.000,0
"04/08/08","03:03:05",11449.000,"cc",28346.498,6.00,6,0.100,7749.000,0.200,1114.000,0.300,945.000,0.500,1152.000,1.000,489.000,5.000,0
"04/08/08","03:03:11",11387.000,"cc",28228.701,6.00,6,0.100,7721.000,0.200,1085.000,0.300,974.000,0.500,1123.000,1.000,484.000,5.000,0
"04/08/08","03:03:17",11429.000,"cc",28228.080,6.00,6,0.100,7665.000,0.200,1118.000,0.300,948.000,0.500,1202.000,1.000,496.000,5.000,0
"04/08/08","03:03:23",11608.000,"cc",28430.195,6.00,6,0.100,7863.000,0.200,1213.000,0.300,910.000,0.500,1167.000,1.000,455.000,5.000,0
"04/08/08","03:03:29",11418.000,"cc",28346.248,6.00,6,0.100,7747.000,0.200,1082.000,0.300,977.000,0.500,1142.000,1.000,470.000,5.000,0
"04/08/08","03:03:35",11633.000,"cc",28340.750,6.00,6,0.100,7981.000,0.200,1128.000,0.300,899.000,0.500,1184.000,1.000,441.000,5.000,0
"04/08/08","03:03:41",11605.000,"cc",28259.424,6.00,6,0.100,7747.000,0.200,1162.000,0.300,1008.000,0.500,1210.000,1.000,478.000,5.000,0
"04/08/08","03:03:47",11784.000,"cc",28269.883,6.00,6,0.100,7959.000,0.200,1220.000,0.300,926.000,0.500,1187.000,1.000,492.000,5.000,0
"04/08/08","03:03:53",12043.000,"cc",28284.354,6.00,6,0.100,8009.000,0.200,1244.000,0.300,989.000,0.500,1273.000,1.000,528.000,5.000,0
"04/08/08","03:03:59",11857.000,"cc",28305.555,6.00,6,0.100,7696.000,0.200,1267.000,0.300,1075.000,0.500,1339.000,1.000,480.000,5.000,0
"04/08/08","03:04:05",11744.000,"cc",28385.709,6.00,6,0.100,7737.000,0.200,1286.000,0.300,1036.000,0.500,1197.000,1.000,488.000,5.000,0
"04/08/08","03:04:11",11807.000,"cc",28298.998,6.00,6,0.100,7682.000,0.200,1264.000,0.300,1058.000,0.500,1273.000,1.000,530.000,5.000,0
"04/08/08","03:04:17",12024.000,"cc",28346.492,6.00,6,0.100,7724.000,0.200,1275.000,0.300,1064.000,0.500,1374.000,1.000,587.000,5.000,0
"04/08/08","03:04:23",12114.000,"cc",28293.852,6.00,6,0.100,7827.000,0.200,1281.000,0.300,1130.000,0.500,1361.000,1.000,515.000,5.000,0
"04/08/08","03:04:29",11970.000,"cc",28271.090,6.00,6,0.100,7656.000,0.200,1340.000,0.300,1092.000,0.500,1376.000,1.000,506.000,5.000,0
"04/08/08","03:04:35",11902.000,"cc",28302.461,6.00,6,0.100,7702.000,0.200,1331.000,0.300,1063.000,0.500,1264.000,1.000,542.000,5.000,0
"04/08/08","03:04:41",11503.000,"cc",28210.328,6.00,6,0.100,7370.000,0.200,1218.000,0.300,1052.000,0.500,1326.000,1.000,537.000,5.000,0
"04/08/08","03:04:47",11989.000,"cc",28287.598,6.00,6,0.100,7800.000,0.200,1254.000,0.300,1114.000,0.500,1315.000,1.000,506.000,5.000,0
"04/08/08","03:04:53",11689.000,"cc",28354.170,6.00,6,0.100,7529.000,0.200,1224.000,0.300,1080.000,0.500,1310.000,1.000,545.000,5.000,1.000
"04/08/08","03:04:59",11947.000,"cc",28360.318,6.00,6,0.100,7657.000,0.200,1335.000,0.300,1084.000,0.500,1322.000,1.000,549.000,5.000,0
"04/08/08","03:05:05",12253.000,"cc",28252.039,6.00,6,0.100,7748.000,0.200,1343.000,0.300,1180.000,0.500,1408.000,1.000,574.000,5.000,0
"04/08/08","03:05:11",12235.000,"cc",28258.277,6.00,6,0.100,7848.000,0.200,1325.000,0.300,1155.000,0.500,1359.000,1.000,548.000,5.000,0
"04/08/08","03:05:17",12181.000,"cc",28280.010,6.00,6,0.100,7766.000,0.200,1349.000,0.300,1099.000,0.500,1385.000,1.000,582.000,5.000,0
"04/08/08","03:05:23",12101.000,"cc",28286.402,6.00,6,0.100,7707.000,0.200,1319.000,0.300,1204.000,0.500,1354.000,1.000,517.000,5.000,0
"04/08/08","03:05:29",12137.000,"cc",28311.982,6.00,6,0.100,7757.000,0.200,1268.000,0.300,1092.000,0.500,1432.000,1.000,588.000,5.000,0
"04/08/08","03:05:35",12373.000,"cc",28386.490,6.00,6,0.100,7830.000,0.200,1376.000,0.300,1201.000,0.500,1421.000,1.000,545.000,5.000,0
"04/08/08","03:05:41",12258.000,"cc",28464.518,6.00,6,0.100,7725.000,0.200,1356.000,0.300,1205.000,0.500,1400.000,1.000,572.000,5.000,0
"04/08/08","03:05:47",12142.000,"cc",28230.729,6.00,6,0.100,7632.000,0.200,1406.000,0.300,1120.000,0.500,1403.000,1.000,581.000,5.000,0
"04/08/08","03:05:53",12316.000,"cc",28334.607,6.00,6,0.100,7726.000,0.200,1388.000,0.300,1201.000,0.500,1433.000,1.000,568.000,5.000,0
"04/08/08","03:05:59",12233.000,"cc",28190.348,6.00,6,0.100,7533.000,0.200,1465.000,0.300,1223.000,0.500,1411.000,1.000,601.000,5.000,0
"04/08/08","03:06:05",12464.000,"cc",28287.549,6.00,6,0.100,7703.000,0.200,1437.000,0.300,1192.000,0.500,1551.000,1.000,581.000,5.000,0
"04/08/08","03:06:11",12637.000,"cc",28291.801,6.00,6,0.100,7904.000,0.200,1433.000,0.300,1176.000,0.500,1530.000,1.000,594.000,5.000,0
"04/08/08","03:06:17",12645.000,"cc",28410.859,6.00,6,0.100,7756.000,0.200,1449.000,0.300,1325.000,0.500,1500.000,1.000,615.000,5.000,0
"04/08/08","03:06:23",12825.000,"cc",28406.299,6.00,6,0.100,7809.000,0.200,1576.000,0.300,1262.000,0.500,1558.000,1.000,620.000,5.000,0
"04/08/08","03:06:29",12889.000,"cc",28249.234,6.00,6,0.100,7821.000,0.200,1535.000,0.300,1317.000,0.500,1568.000,1.000,648.000,5.000,0
"04/08/08","03:06:35",12538.000,"cc",28222.438,6.00,6,0.100,7504.000,0.200,1518.000,0.300,1307.000,0.500,1599.000,1.000,610.000,5.000,0
"04/08/08","03:06:41",12809.000,"cc",28291.883,6.00,6,0.100,7639.000,0.200,1531.000,0.300,1364.000,0.500,1649.000,1.000,626.000,5.000,0
"04/08/08","03:06:47",12574.000,"cc",28339.414,6.00,6,0.100,7504.000,0.200,1478.000,0.300,1280.000,0.500,1659.000,1.000,653.000,5.000,0
"04/08/08","03:06:53",12758.000,"cc",28401.518,6.00,6,0.100,7673.000,0.200,1514.000,0.300,1273.000,0.500,1654.000,1.000,644.000,5.000,0
"04/08/08","03:06:59",12599.000,"cc",28238.842,6.00,6,0.100,7592.000,0.200,1551.000,0.300,1278.000,0.500,1538.000,1.000,640.000,5.000,0
"04/08/08","03:07:05",12784.000,"cc",28307.488,6.00,6,0.100,7596.000,0.200,1554.000,0.300,1274.000,0.500,1693.000,1.000,667.000,5.000,0
"04/08/08","03:07:11",12803.000,"cc",28256.119,6.00,6,0.100,7677.000,0.200,1599.000,0.300,1273.000,0.500,1617.000,1.000,637.000,5.000,0
"04/08/08","03:07:17",12781.000,"cc",28217.930,6.00,6,0.100,7571.000,0.200,1599.000,0.300,1374.000,0.500,1601.000,1.000,636.000,5.000,0
"04/08/08","03:07:23",13141.000,"cc",28347.066,6.00,6,0.100,7803.000,0.200,1631.000,0.300,1359.000,0.500,1706.000,1.000,642.000,5.000,0
"04/08/08","03:07:29",12728.000,"cc",28381.777,6.00,6,0.100,7524.000,0.200,1575.000,0.300,1304.000,0.500,1661.000,1.000,664.000,5.000,0
"04/08/08","03:07:35",12697.000,"cc",28285.918,6.00,6,0.100,7597.000,0.200,1511.000,0.300,1373.000,0.500,1611.000,1.000,605.000,5.000,0
"04/08/08","03:07:41",12939.000,"cc",28247.106,6.00,6,0.100,7689.000,0.200,1560.000,0.300,1342.000,0.500,1732.000,1.000,616.000,5.000,0
"04/08/08","03:07:47",12790.000,"cc",28220.660,6.00,6,0.100,7478.000,0.200,1577.000,0.300,1379.000,0.500,1688.000,1.000,668.000,5.000,0
"04/08/08","03:07:53",12885.000,"cc",28477.768,6.00,6,0.100,7531.000,0.200,1631.000,0.300,1384.000,0.500,1665.000,1.000,674.000,5.000,0
"04/08/08","03:07:59",12858.000,"cc",28463.709,6.00,6,0.100,7659.000,0.200,1551.000,0.300,1352.000,0.500,1645.000,1.000,651.000,5.000,0
"04/08/08","03:08:05",12398.000,"cc",28259.912,6.00,6,0.100,7387.000,0.200,1493.000,0.300,1259.000,0.500,1623.000,1.000,636.000,5.000,0
"04/08/08","03:08:11",12773.000,"cc",28375.211,6.00,6,0.100,7431.000,0.200,1589.000,0.300,1390.000,0.500,1708.000,1.000,655.000,5.000,0
"04/08/08","03:08:17",12601.000,"cc",28399.381,6.00,6,0.100,7514.000,0.200,1550.000,0.300,1288.000,0.500,1597.000,1.000,652.000,5.000,0
"04/08/08","03:08:23",12390.000,"cc",28090.658,6.00,6,0.100,7333.000,0.200,1530.000,0.300,1317.000,0.500,1549.000,1.000,661.000,5.000,0
"04/08/08","03:08:29",12213.000,"cc",28268.994,6.00,6,0.100,7353.000,0.200,1468.000,0.300,1264.000,0.500,1509.000,1.000,618.000,5.000,1.000
"04/08/08","03:08:35",12101.000,"cc",28306.996,6.00,6,0.100,7338.000,0.200,1479.000,0.300,1230.000,0.500,1454.000,1.000,600.000,5.000,0
"04/08/08","03:08:41",12131.000,"cc",28266.211,6.00,6,0.100,7230.000,0.200,1489.000,0.300,1274.000,0.500,1527.000,1.000,611.000,5.000,0
"04/08/08","03:08:47",12307.000,"cc",28493.816,6.00,6,0.100,7352.000,0.200,1471.000,0.300,1295.000,0.500,1582.000,1.000,607.000,5.000,0
"04/08/08","03:08:53",11993.000,"cc",28277.768,6.00,6,0.100,7154.000,0.200,1430.000,0.300,1270.000,0.500,1543.000,1.000,596.000,5.000,0
"04/08/08","03:08:59",12327.000,"cc",28192.031,6.00,6,0.100,7297.000,0.200,1505.000,0.300,1307.000,0.500,1629.000,1.000,589.000,5.000,0
"04/08/08","03:09:05",12493.000,"cc",28419.002,6.00,6,0.100,7520.000,0.200,1481.000,0.300,1251.000,0.500,1608.000,1.000,633.000,5.000,0
"04/08/08","03:09:11",11700.000,"cc",28308.389,6.00,6,0.100,7193.000,0.200,1343.000,0.300,1190.000,0.500,1376.000,1.000,598.000,5.000,0
"04/08/08","03:09:17",12025.000,"cc",28288.768,6.00,6,0.100,7072.000,0.200,1480.000,0.300,1308.000,0.500,1550.000,1.000,615.000,5.000,0
"04/08/08","03:09:23",12271.000,"cc",28307.057,6.00,6,0.100,7351.000,0.200,1514.000,0.300,1239.000,0.500,1526.000,1.000,641.000,5.000,0
"04/08/08","03:09:29",12107.000,"cc",28281.293,6.00,6,0.100,7135.000,0.200,1502.000,0.300,1306.000,0.500,1556.000,1.000,608.000,5.000,0
"04/08/08","03:09:35",11489.000,"cc",28384.102,6.00,6,0.100,6928.000,0.200,1380.000,0.300,1226.000,0.500,1387.000,1.000,568.000,5.000,0
"04/08/08","03:09:41",11793.000,"cc",28236.813,6.00,6,0.100,7191.000,0.200,1513.000,0.300,1087.000,0.500,1416.000,1.000,586.000,5.000,0
"04/08/08","03:09:47",11885.000,"cc",28293.453,6.00,6,0.100,7143.000,0.200,1422.000,0.300,1208.000,0.500,1499.000,1.000,613.000,5.000,0
"04/08/08","03:09:53",10962.000,"cc",28326.602,6.00,6,0.100,6858.000,0.200,1202.000,0.300,1056.000,0.500,1314.000,1.000,532.000,5.000,0
"04/08/08","03:09:59",11397.000,"cc",28416.531,6.00,6,0.100,7087.000,0.200,1327.000,0.300,1154.000,0.500,1280.000,1.000,549.000,5.000,0
"04/08/08","03:10:05",11351.000,"cc",28338.660,6.00,6,0.100,6887.000,0.200,1346.000,0.300,1179.000,0.500,1348.000,1.000,591.000,5.000,0
"04/08/08","03:10:11",11100.000,"cc",28310.078,6.00,6,0.100,6902.000,0.200,1272.000,0.300,1115.000,0.500,1288.000,1.000,522.000,5.000,1.000
"04/08/08","03:10:17",10893.000,"cc",28295.387,6.00,6,0.100,6743.000,0.200,1211.000,0.300,1066.000,0.500,1302.000,1.000,571.000,5.000,0
"04/08/08","03:10:23",11369.000,"cc",28206.791,6.00,6,0.100,7059.000,0.200,1298.000,0.300,1115.000,0.500,1354.000,1.000,543.000,5.000,0
"04/08/08","03:10:29",11024.000,"cc",28349.014,6.00,6,0.100,6965.000,0.200,1178.000,0.300,1087.000,0.500,1220.000,1.000,574.000,5.000,0
"04/08/08","03:10:35",11332.000,"cc",28309.539,6.00,6,0.100,6999.000,0.200,1345.000,0.300,1109.000,0.500,1332.000,1.000,547.000,5.000,0
"04/08/08","03:10:41",10980.000,"cc",28362.955,6.00,6,0.100,6905.000,0.200,1255.000,0.300,1068.000,0.500,1229.000,1.000,523.000,5.000,0
"04/08/08","03:10:47",9810.000,"cc",28298.916,6.00,6,0.100,6735.000,0.200,960.000,0.300,813.000,0.500,935.000,1.000,367.000,5.000,0
"04/08/08","03:10:53",10218.000,"cc",28420.846,6.00,6,0.100,6711.000,0.200,1061.000,0.300,919.000,0.500,1087.000,1.000,440.000,5.000,0
"04/08/08","03:10:59",10457.000,"cc",28381.543,6.00,6,0.100,6841.000,0.200,1110.000,0.300,925.000,0.500,1139.000,1.000,442.000,5.000,0
"04/08/08","03:11:05",9750.000,"cc",28206.996,6.00,6,0.100,6657.000,0.200,954.000,0.300,810.000,0.500,932.000,1.000,397.000,5.000,0
"04/08/08","03:11:11",9926.000,"cc",28332.299,6.00,6,0.100,6821.000,0.200,1003.000,0.300,764.000,0.500,943.000,1.000,395.000,5.000,0
"04/08/08","03:11:17",9572.000,"cc",28466.041,6.00,6,0.100,6695.000,0.200,938.000,0.300,760.000,0.500,832.000,1.000,347.000,5.000,0
"04/08/08","03:11:23",9471.000,"cc",28163.022,6.00,6,0.100,6705.000,0.200,876.000,0.300,677.000,0.500,872.000,1.000,341.000,5.000,0
"04/08/08","03:11:29",9695.000,"cc",28391.775,6.00,6,0.100,6706.000,0.200,954.000,0.300,744.000,0.500,896.000,1.000,395.000,5.000,0
"04/08/08","03:11:35",9788.000,"cc",28372.764,6.00,6,0.100,6539.000,0.200,969.000,0.300,854.000,0.500,1013.000,1.000,413.000,5.000,0
"04/08/08","03:11:41",9604.000,"cc",28319.336,6.00,6,0.100,6539.000,0.200,914.000,0.300,831.000,0.500,939.000,1.000,381.000,5.000,0
"04/08/08","03:11:47",9768.000,"cc",28441.400,6.00,6,0.100,6523.000,0.200,1062.000,0.300,817.000,0.500,1011.000,1.000,355.000,5.000,0
"04/08/08","03:11:53",9957.000,"cc",28543.775,6.00,6,0.100,6604.000,0.200,1032.000,0.300,872.000,0.500,1042.000,1.000,407.000,5.000,0
"04/08/08","03:11:59",9703.000,"cc",28265.572,6.00,6,0.100,6557.000,0.200,958.000,0.300,822.000,0.500,985.000,1.000,381.000,5.000,0
"04/08/08","03:12:05",9361.000,"cc",28139.418,6.00,6,0.100,6427.000,0.200,921.000,0.300,738.000,0.500,913.000,1.000,362.000,5.000,0
"04/08/08","03:12:11",9534.000,"cc",28212.106,6.00,6,0.100,6582.000,0.200,867.000,0.300,726.000,0.500,995.000,1.000,364.000,5.000,0
"04/08/08","03:12:17",9155.000,"cc",28222.953,6.00,6,0.100,6178.000,0.200,949.000,0.300,770.000,0.500,908.000,1.000,350.000,5.000,0
"04/08/08","03:12:23",9341.000,"cc",28268.789,6.00,6,0.100,6337.000,0.200,923.000,0.300,763.000,0.500,928.000,1.000,390.000,5.000,0
"04/08/08","03:12:29",9492.000,"cc",28306.260,6.00,6,0.100,6462.000,0.200,945.000,0.300,791.000,0.500,938.000,1.000,356.000,5.000,0
"04/08/08","03:12:35",9657.000,"cc",28409.428,6.00,6,0.100,6493.000,0.200,1001.000,0.300,787.000,0.500,995.000,1.000,381.000,5.000,0
"04/08/08","03:12:41",9628.000,"cc",28301.746,6.00,6,0.100,6488.000,0.200,920.000,0.300,804.000,0.500,1002.000,1.000,414.000,5.000,0
"04/08/08","03:12:47",9468.000,"cc",28187.748,6.00,6,0.100,6387.000,0.200,936.000,0.300,775.000,0.500,977.000,1.000,393.000,5.000,0
"04/08/08","03:12:53",10061.000,"cc",28369.180,6.00,6,0.100,6709.000,0.200,1008.000,0.300,851.000,0.500,1074.000,1.000,419.000,5.000,0
"04/08/08","03:12:59",9975.000,"cc",28261.797,6.00,6,0.100,6600.000,0.200,1036.000,0.300,867.000,0.500,1071.000,1.000,401.000,5.000,0
"04/08/08","03:13:05",9695.000,"cc",28252.647,6.00,6,0.100,6437.000,0.200,1012.000,0.300,853.000,0.500,999.000,1.000,394.000,5.000,0
"04/08/08","03:13:11",9724.000,"cc",28381.738,6.00,6,0.100,6408.000,0.200,986.000,0.300,851.000,0.500,1071.000,1.000,408.000,5.000,0
"04/08/08","03:13:17",9813.000,"cc",28365.043,6.00,6,0.100,6503.000,0.200,1022.000,0.300,889.000,0.500,1004.000,1.000,395.000,5.000,0
"04/08/08","03:13:23",9987.000,"cc",28449.316,6.00,6,0.100,6517.000,0.200,1011.000,0.300,895.000,0.500,1128.000,1.000,436.000,5.000,0
"04/08/08","03:13:29",9846.000,"cc",28266.211,6.00,6,0.100,6628.000,0.200,932.000,0.300,834.000,0.500,998.000,1.000,453.000,5.000,1.000
"04/08/08","03:13:35",9680.000,"cc",28217.594,6.00,6,0.100,6482.000,0.200,959.000,0.300,829.000,0.500,990.000,1.000,420.000,5.000,0
"04/08/08","03:13:41",9842.000,"cc",28264.633,6.00,6,0.100,6629.000,0.200,1007.000,0.300,795.000,0.500,992.000,1.000,419.000,5.000,0
"04/08/08","03:13:47",10059.000,"cc",28405.602,6.00,6,0.100,6730.000,0.200,1043.000,0.300,876.000,0.500,1007.000,1.000,403.000,5.000,0
"04/08/08","03:13:53",8890.000,"cc",28454.512,6.00,6,0.100,6447.000,0.200,763.000,0.300,646.000,0.500,757.000,1.000,277.000,5.000,0
"04/08/08","03:13:59",9117.000,"cc",28362.582,6.00,6,0.100,6525.000,0.200,827.000,0.300,630.000,0.500,798.000,1.000,337.000,5.000,0
"04/08/08","03:14:05",9488.000,"cc",28374.684,6.00,6,0.100,6723.000,0.200,875.000,0.300,706.000,0.500,847.000,1.000,337.000,5.000,0
"04/08/08","03:14:11",9140.000,"cc",28290.719,6.00,6,0.100,6517.000,0.200,860.000,0.300,651.000,0.500,809.000,1.000,303.000,5.000,0
"04/08/08","03:14:17",9587.000,"cc",28266.736,6.00,6,0.100,6601.000,0.200,933.000,0.300,792.000,0.500,896.000,1.000,365.000,5.000,0
"04/08/08","03:14:23",9513.000,"cc",28281.943,6.00,6,0.100,6453.000,0.200,981.000,0.300,737.000,0.500,969.000,1.000,373.000,5.000,0
"04/08/08","03:14:29",9582.000,"cc",28427.713,6.00,6,0.100,6523.000,0.200,965.000,0.300,785.000,0.500,906.000,1.000,403.000,5.000,0
"04/08/08","03:14:35",9488.000,"cc",28297.553,6.00,6,0.100,6426.000,0.200,974.000,0.300,790.000,0.500,911.000,1.000,386.000,5.000,1.000
"04/08/08","03:14:41",9587.000,"cc",28288.936,6.00,6,0.100,6421.000,0.200,987.000,0.300,829.000,0.500,966.000,1.000,384.000,5.000,0
"04/08/08","03:14:47",10528.000,"cc",28287.709,6.00,6,0.100,6707.000,0.200,1165.000,0.300,952.000,0.500,1152.000,1.000,552.000,5.000,0
"04/08/08","03:14:53",9596.000,"cc",28333.354,6.00,6,0.100,6548.000,0.200,948.000,0.300,799.000,0.500,929.000,1.000,372.000,5.000,0
"04/08/08","03:14:59",9349.000,"cc",28274.668,6.00,6,0.100,6365.000,0.200,890.000,0.300,807.000,0.500,911.000,1.000,376.000,5.000,0
"04/08/08","03:15:05",9614.000,"cc",28254.604,6.00,6,0.100,6380.000,0.200,1012.000,0.300,846.000,0.500,953.000,1.000,423.000,5.000,0
"04/08/08","03:15:11",9434.000,"cc",28355.729,6.00,6,0.100,6430.000,0.200,942.000,0.300,788.000,0.500,905.000,1.000,369.000,5.000,0
"04/08/08","03:15:17",9465.000,"cc",28502.432,6.00,6,0.100,6460.000,0.200,903.000,0.300,769.000,0.500,974.000,1.000,359.000,5.000,0
"04/08/08","03:15:23",9545.000,"cc",28377.711,6.00,6,0.100,6473.000,0.200,949.000,0.300,783.000,0.500,942.000,1.000,398.000,5.000,0
"04/08/08","03:15:29",9768.000,"cc",28109.262,6.00,6,0.100,6568.000,0.200,980.000,0.300,825.000,0.500,1001.000,1.000,394.000,5.000,0
"04/08/08","03:15:35",9782.000,"cc",28170.914,6.00,6,0.100,6505.000,0.200,999.000,0.300,822.000,0.500,1041.000,1.000,415.000,5.000,0
"04/08/08","03:15:41",9713.000,"cc",28330.043,6.00,6,0.100,6517.000,0.200,986.000,0.300,804.000,0.500,989.000,1.000,417.000,5.000,0
"04/08/08","03:15:47",9987.000,"cc",28496.158,6.00,6,0.100,6577.000,0.200,1035.000,0.300,877.000,0.500,1045.000,1.000,453.000,5.000,0
"04/08/08","03:15:53",9962.000,"cc",28361.445,6.00,6,0.100,6646.000,0.200,1013.000,0.300,881.000,0.500,1015.000,1.000,407.000,5.000,0
"04/08/08","03:15:59",9704.000,"cc",28266.471,6.00,6,0.100,6425.000,0.200,984.000,0.300,841.000,0.500,1033.000,1.000,421.000,5.000,0
"04/08/08","03:16:05",10268.000,"cc",28272.998,6.00,6,0.100,6696.000,0.200,1085.000,0.300,887.000,0.500,1134.000,1.000,466.000,5.000,0
"04/08/08","03:16:11",10051.000,"cc",28349.873,6.00,6,0.100,6750.000,0.200,1016.000,0.300,784.000,0.500,1047.000,1.000,453.000,5.000,1.000
"04/08/08","03:16:17",10075.000,"cc",28447.797,6.00,6,0.100,6716.000,0.200,1006.000,0.300,851.000,0.500,1107.000,1.000,395.000,5.000,0
"04/08/08","03:16:23",10035.000,"cc",28393.289,6.00,6,0.100,6557.000,0.200,1048.000,0.300,903.000,0.500,1077.000,1.000,450.000,5.000,0
"04/08/08","03:16:29",10003.000,"cc",28226.578,6.00,6,0.100,6599.000,0.200,1042.000,0.300,869.000,0.500,1054.000,1.000,439.000,5.000,0
"04/08/08","03:16:35",10289.000,"cc",28194.772,6.00,6,0.100,6708.000,0.200,1079.000,0.300,928.000,0.500,1112.000,1.000,462.000,5.000,0
"04/08/08","03:16:41",10396.000,"cc",28346.051,6.00,6,0.100,6750.000,0.200,1143.000,0.300,947.000,0.500,1124.000,1.000,432.000,5.000,0